COSMOS 1285 DEB, 26680

Orbit data source: Space-Track

COSMOS 1285 DEB, 26680 is space debris originally from a launch on Tue, 04 Aug 1981 UTC launched from the Plesetsk Missile And Space Complex (PKMTR). Debris objects in space refer to the collection of defunct objects orbiting the Earth. Examples of debris include non-operational satellites, rocket bodies, and fragments generated from explosions, collisions, or faulty payload assembly.

Loading next visibility...
Identifier
26680, 1981-071L
Orbit
Molniya
Country
Flag of CISCIS
Related business
Manufacturer
Unknown
Mission
Spacecraft
Bus & Motor
Unknown
Mass
Unknown
Launch date (UTC)
1981-08-04 (44 years ago)
Launch vehicle
Unknown
Launch site
Plesetsk Missile And Space Complex (PKMTR)
Object type
Payload
Rocket body
Debris
Shape & HBR
Unknown
Radar Cross Section
Medium (>0.1 m² and <1 m²)

Expand to show TLE details & history
Last TLE update: 1 day ago

TLE from 1 day ago
0 COSMOS 1285 DEB
1 26680U 81071L   25259.51147545  .00001308  00000-0  00000-0 0  9996
2 26680  63.4944  46.5059 7352872  44.0342 354.9931  1.98257752202570
Epoch: 2025-09-16T12:16Z
TLE epoch observation values (Epoch: 2025-09-16T12:16:31.478Z)
Latitude
-0.0002°
Longitude
-133.39255°
Altitude
1,681.508 km
Speed
9.167 km/s
True Right ascension
03h 05m 45s
True Declination
0° 00' 01"
Sunlit
Object was in partial shadow at epoch
Visualization orbit readout
Latitude
Unknown
Longitude
Unknown
Altitude
Unknown
Speed
Unknown
Apparent Right ascension
Unknown
Apparent Declination
Unknown
Sunlit
N/A
Visualization observer readout
Local Sidereal Time
15:03:07
Azimuth
Unknown
Elevation
Unknown
Doppler factor
Unknown
Orbital elements
Apogee altitude
40,066.556 km
Perigee altitude
706.86 km
Semi-major axis
26,764.845 km
Eccentricity
0.73529
Inclination
63.4944°
RAAN
46.5059°
Arg. of periapsis
44.0342°
True anomaly
315.66265°
Mean anomaly
354.9931°
Eccentric anomaly
341.91547°
Mean motion
0.49567 °/min
Orbital period
726.28 mins
BSTAR
0
Loading maneuver chart data...
Computing Atmospheric mass density...
Loading historical data...
Loading historical data...
Loading historical data...
Loading historical data...
Loading historical data...
Loading historical data...
Loading historical data...

Documentation

Showing up to 5 results
|